2017-008AD

Last updated on Wed Mar 01 2017 00:15:03 GMT+0000 (Coordinated Universal Time)

1 41975U 17008AD 17059.75224568 .00001507 00000-0 69987-4 0 9999 2 41975 97.5094 121.3571 0007847 204.9773 155.1066 15.21556421 1748
UTC large
Height (km)
Speed (km/s)
/
Latitude / Longitude
Inclination (degrees)
Orbital Period (minutes)
Azimuth
Elevation
Range (km)
Doppler Factor

Next 0 passes for location: London (51.5072 / 0.1276)

Sorry there are no passes over London.